"Time","Temp","Dewpoint","Humidity","Pressure","Direction","Speed","Gust","Precip","PrecipRate"
"18:59:58","62.7","49.1","61","29.88","346","5","13","0.30","0.00"
"19:04:59","62.4","49.2","62","29.88","326","4.3","10","0.30","0.00"
"19:09:59","62.1","48.8","61.6","29.88","343","7.4","14","0.30","0.00"
"19:14:57","61.7","48.4","61.7","29.89","323","5.4","15","0.30","0.00"
"19:19:58","61.5","48.6","62.5","29.89","337","2.9","11","0.30","0.00"
"19:24:59","61.2","48.4","62.7","29.89","328","6.4","19.6","0.30","0.00"
"19:29:57","60.9","48.3","63.3","29.90","318","4.3","12.7","0.30","0.00"
"19:34:58","60.7","48.4","64.1","29.90","331","3.9","10.4","0.30","0.00"
"19:39:56","60.4","48.2","63.9","29.90","321","3.9","11.5","0.30","0.00"
"19:44:59","60.3","48.1","64.1","29.90","320","3.5","11.5","0.30","0.00"
"19:49:57","60.1","48.3","65","29.90","323","2.7","9.2","0.30","0.00"
"19:54:59","59.8","48.5","66.3","29.90","320","3.3","10","0.30","0.00"
"19:59:58","59.4","48.2","66.3","29.91","286","3.3","10.4","0.30","0.00"
"20:04:56","59.3","48.1","66.4","29.91","340","4","13.8","0.30","0.00"
"20:09:56","59.2","47.9","66.4","29.91","312","4.4","18","0.30","0.00"
"20:14:58","59.1","47.8","66.3","29.91","330","5.7","18.4","0.30","0.00"
"20:19:57","59","48","66.8","29.91","326","5","13","0.30","0.00"
"20:24:57","59","47.6","65.9","29.91","316","5.5","12.7","0.30","0.00"
"20:29:54","59","47.5","65.7","29.92","319","5.9","15","0.30","0.00"
"20:34:58","58.9","47.6","66","29.92","325","3.3","10.4","0.30","0.00"
"20:39:59","58.7","47.6","66.5","29.92","296","2.9","5.8","0.30","0.00"
"20:44:58","58.4","47.5","66.9","29.92","326","3.4","9.2","0.30","0.00"
"20:49:57","58.2","47.5","67.5","29.92","322","3.6","7","0.30","0.00"
"20:54:59","58","47.4","67.8","29.92","320","4.1","11.5","0.30","0.00"
"20:59:57","57.9","47.1","67.3","29.93","307","4.2","10.4","0.30","0.00"
"21:04:59","57.7","46.9","67.3","29.93","310","3.4","10.4","0.30","0.00"
"21:09:56","57.5","46.9","67.6","29.93","316","3.1","8.1","0.30","0.00"
"21:14:56","57.4","46.5","67.2","29.94","307","3","9","0.30","0.00"
"21:19:58","57.2","46.4","67.2","29.94","312","2.9","5","0.30","0.00"
"21:24:59","57.1","46.4","67.5","29.94","319","1.9","10.4","0.30","0.00"
"21:29:59","56.9","46.8","69.2","29.96","248","1.3","5","0.30","0.00"
"21:34:59","56.4","46.2","68.5","29.96","312","2.1","6","0.30","0.00"
"21:39:56","56.2","46.2","69","29.96","306","1","3.5","0.30","0.00"
"21:44:59","56.1","45.8","68.4","29.96","339","2.2","4","0.30","0.00"
"21:49:58","56","46","69","29.96","341","1.6","5","0.30","0.00"
"21:54:57","55.8","46.2","70","29.96","347","1.3","4","0.30","0.00"
"21:59:59","55.5","46.1","70.6","29.97","348","0.9","2.3","0.30","0.00"
"22:04:58","55.2","46.3","72.2","29.97","264","0.6","3.5","0.30","0.00"
"22:09:59","54.8","46.2","72.8","29.97","260","0","1.2","0.30","0.00"
"22:14:56","54.6","45.8","72.2","29.98","260","0.3","2.3","0.30","0.00"
"22:19:56","54.3","45.8","73","29.98","302","0.9","4","0.30","0.00"
"22:24:59","54.1","46.1","74.3","29.98","335","2","4","0.30","0.00"
"22:29:56","53.8","46.1","75","29.98","335","1.3","4","0.30","0.00"
"22:34:59","53.6","46.4","76.6","29.98","334","1.4","3.5","0.30","0.00"
"22:39:56","53.3","46.6","77.8","29.98","328","1.7","3.5","0.30","0.00"
"22:44:56","53.3","46.4","77.2","29.98","332","1.9","4","0.30","0.00"
"22:49:58","53.4","46.2","76.6","29.98","322","3","7","0.30","0.00"
"22:54:57","53.7","46.2","75.7","29.98","312","2.4","6","0.30","0.00"
"22:59:58","54","45.6","73.3","29.98","321","3.5","7","0.30","0.00"
"23:04:57","54.3","45.8","72.8","29.98","334","2.7","9.2","0.30","0.00"
"23:09:58","54.4","45.9","72.9","29.98","329","1.9","5.8","0.30","0.00"
"23:14:58","54.3","45.8","73","29.98","304","1.7","5","0.30","0.00"
"23:19:57","54.1","45.7","73.5","29.98","351","1.5","8","0.30","0.00"
"23:24:56","53.8","45.8","74.3","29.98","340","1.3","6.9","0.30","0.00"
"23:29:58","53.5","45.6","74.4","29.99","345","0.6","6","0.30","0.00"
"23:34:57","53.3","45.1","73.6","29.99","329","2.4","5.8","0.30","0.00"
"23:44:56","53.2","44.9","73.2","29.99","345","1.4","4","0.30","0.00"
"23:49:59","53.1","45.1","74","29.99","332","1","3.5","0.30","0.00"
"23:54:59","53","45.3","75","29.99","342","1.2","5","0.30","0.00"
"23:59:59","52.9","45.2","75.2","29.99","331","1","4.6","0.30","0.00"
